Regional Weather Roundup
Issued by NWS

Home | Current Version | Previous Version | Graphics & Text | Print | Product List | Glossary Off
Versions: 1 2 3 4 5 6 7 8 9 10 11 12 13 14 15 16 17 18 19 20 21 22 23 24 25 26 27 28 29 30 31 32 33 34 35 36 37 38 39 40 41 42 43 44 45 46 47 48 49 50

000
ASUS43 KMKX 202320
RWRWI

WISCONSIN REGIONAL WEATHER ROUNDUP
NATIONAL WEATHER SERVICE MILWAUKEE/SULLIVAN WI
500 PM CST MON NOV 20 2017

NOTE: "FAIR" INDICATES FEW OR NO CLOUDS BELOW 12,000 FEET WITH NO
SIGNIFICANT WEATHER AND/OR OBSTRUCTIONS TO VISIBILITY.

WIZ001-002-006>008-014>016-023>028-210000-
NORTHWEST WISCONSIN

CITY           SKY/WX    TMP DP  RH WIND       PRES   REMARKS
SUPERIOR ARPT  CLOUDY    29  27  92 CALM      29.35S
ASHLAND        PTCLDY    40  28  62 S12       29.34F WCI  33
HAYWARD        CLOUDY    40  28  62 S13       29.39F WCI  32
SIREN          CLOUDY    40  28  62 SW10      29.40S WCI  34
CUMBERLAND     CLOUDY    37  30  75 S8        29.41F WCI  31
RICE LAKE      CLOUDY    42  31  64 S8        29.43F
CHETEK         CLOUDY    44  31  61 S9        29.43F
LADYSMITH      CLOUDY    41  30  65 S7        29.43F
EAU CLAIRE     CLOUDY    45  30  55 S9        29.46F
MENOMONIE      CLOUDY    47  31  54 S12       29.43F
NEW RICHMOND   CLOUDY    43  30  60 S10       29.43F
OSCEOLA        CLOUDY    43  31  62 S8        29.45S
$$

WIZ003>005-009-010-017-018-210000-
NORTH CENTRAL WISCONSIN

CITY           SKY/WX    TMP DP  RH WIND       PRES   REMARKS
MANITOWISH WTR PTCLDY    37  30  75 S9        29.41S WCI  31
ARBOR VITAE    CLOUDY    39  30  70 S12G17    29.42F WCI  32
WOODRUFF       CLOUDY    39  30  70 S12G17    29.42F WCI  32
RHINELANDER    PTCLDY    40  29  64 S9        29.45S WCI  34
EAGLE RIVER    CLOUDY    37  27  67 S7        29.42F WCI  32
LAND O LAKES   CLOUDY    39  30  69 S6        29.42F WCI  35
PHILLIPS       CLOUDY    39  29  68 S9        29.41F WCI  33
TOMAHAWK       PTCLDY    37  28  69 CALM      29.46F
MEDFORD        CLOUDY    41  29  63 S10       29.46F
MERRILL        PTCLDY    42  29  60 S6        29.48F
$$

WIZ029-030-035-036-043>047-210000-
CENTRAL WISCONSIN

CITY           SKY/WX    TMP DP  RH WIND       PRES   REMARKS
WAUSAU         CLOUDY    44  29  55 S12       29.48S
MOSINEE        CLOUDY    43  30  61 S15       29.50F
MARSHFIELD     CLOUDY    43  28  55 SW9       29.49S
STEVENS POINT  CLOUDY    43  29  57 SW7       29.52S
WAUPACA        CLOUDY    45  31  59 S6        29.53F
WAUTOMA        CLOUDY    47  30  51 S6        29.55S
WISC RAPIDS    CLOUDY    46  31  55 SW12      29.53F
CAMP DOUGLAS   CLOUDY    46  28  49 S10       29.54F
$$

WIZ011>013-019>022-031-037>040-048>050-210000-
NORTHEAST WISCONSIN

CITY           SKY/WX    TMP DP  RH WIND       PRES   REMARKS
ANTIGO         CLOUDY    36  29  75 S5        29.49S WCI  32
SHAWANO        CLOUDY    44  32  62 S3        29.51F
OCONTO         CLOUDY    40  32  73 S3        29.53F
STURGEON BAY   CLOUDY    42  35  76 S14G24    29.54F
GREEN BAY      CLOUDY    45  33  63 S9        29.54F
MANITOWOC      CLOUDY    42  34  73 S8        29.57F
APPLETON       MOCLDY    43  28  56 SW12      29.54F
CLINTONVILLE   CLOUDY    43  30  61 S8        29.52F
OSHKOSH        CLOUDY    45  33  63 S13       29.55F
$$

WIZ032>034-041-042-053>061-210000-
SOUTHWEST WISCONSIN

CITY           SKY/WX    TMP DP  RH WIND       PRES   REMARKS
LA CROSSE      CLOUDY    49  33  54 S9        29.53S
SPARTA         CLOUDY    49  32  52 SW3       29.54S
VIROQUA        CLOUDY    46  33  60 S9        29.55R
BOSCOBEL       CLOUDY    50  31  48 SW5       29.58S
PRAIRIE DU CHI CLOUDY    55  28  35 S12       29.58R
PLATTEVILLE    CLOUDY    49  34  56 S14       29.62R
$$

WIZ056-057-062-063-064-067-068-210000-
SOUTH CENTRAL WISCONSIN

CITY           SKY/WX    TMP DP  RH WIND       PRES   REMARKS
REEDSBURG      CLOUDY    48  32  54 S10       29.56S
BARABOO/DELLS  CLOUDY    48  30  49 SW15      29.56S
LONE ROCK      CLOUDY    51  33  50 SW5       29.59R
MINERAL POINT  CLOUDY    52  32  46 S14       29.60S
MADISON        CLOUDY    49  32  52 S9        29.60R
MIDDLETON      CLOUDY    51  32  48 SW10      29.60S
WATERTOWN      CLOUDY    48  33  56 S13       29.60S
MONROE         CLOUDY    50  32  50 S24G30    29.63R
JANESVILLE     MOCLDY    52  32  46 S17G24    29.64F
$$

WIZ051-052-058>065-066-070>072-210000-
SOUTHEAST WISCONSIN

CITY           SKY/WX    TMP DP  RH WIND       PRES   REMARKS
MILWAUKEE      CLOUDY    50  33  52 SW21G30   29.63F
WAUKESHA       CLEAR     46  32  57 S12G28    29.63F
MILWAUKEE/TIMM CLEAR     48  28  46 S14G22    29.62F
RACINE         CLOUDY    50  32  50 SW14G25   29.67F
BURLINGTON     CLOUDY    50  37  62 S22G32    29.64F
KENOSHA        CLOUDY    50  32  50 SW20G32   29.66F
FOND DU LAC    CLOUDY    47  31  53 S16       29.57S
SHEBOYGAN      CLOUDY    45  33  63 S12       29.58F
WEST BEND      CLOUDY    45  32  61 SW14      29.59F
JUNEAU         CLOUDY    44  32  62 S10       29.60S
$$

LSZ147-162-210000-
LAKE SUPERIOR

STATION/POSITION TIME  TEMP    WIND        PRES    WAVE
                       AIR SEA DIR/SP/G            HT/PER
                 (UTC) (F)     (DEG/KT/KT) (MB)    (FT/S)
DEVILS ISLAND    2300   38     170/  7/  9  993.8F
SAXON HARBOR     2240   45     190/ 11/ 20  993.2F
$$

LMZ867-665-643>646-210000-
LAKE MICHIGAN

STATION/POSITION TIME  TEMP    WIND        PRES    WAVE
                       AIR SEA DIR/SP/G            HT/PER
                 (UTC) (F)     (DEG/KT/KT) (MB)    (FT/S)
N MID LAKE BUOY  2250   46 48  190/ 27/ 35 1001.0F   9/ 7
NORTHPORT PIER   2300   44     160/ 12/ 21 1000.3
KEWAUNEE LAKESHO 2254   42     190/ 15/ 19 1000.4F
SHEBOYGAN LAKESH 2300   44     180/ 15/ 16 1001.9F
PORT WASHINGTON  2240   50     220/  7/ 14 1003.7F
MILWAUKEE LAKESH 2300   51     220/ 20/ 23   N/A
S MID LAKE BUOY  2250   50 49  210/ 27/ 33 1005.3F   6/ 6
KENOSHA   LAKESH 2300   51     200/ 16/ 24 1004.7
$$

TC  - TEMPERATURE IN CELSIUS
VSB - VISIBILITY IN STATUTE MILES
WCI - WIND CHILL INDEX
HX  - HEAT INDEX





USA.gov is the U.S. government's official web portal to all federal, state and local government web resources and services.